sat.trackr.live / text

‹ back to catalog

ANIK F2

NORAD 28378 · 2004-027A

PAYLOAD ACTIVE UNKNOWN

§ Identity

Operator
Country
CA
Launch date
2004-07-18
Launch site
FRGUI
Launch vehicle
Mass (kg)
RCS (m²)
36.63

Purposes: comms

External: N2YO · Heavens-Above · Gunter

§ Orbital elements

Epoch: 2026-09-08T22:07:44.606784Z

Period
1,436.10 min
Inclination
3.4983°
Eccentricity
0.0002972
Mean motion
1.00271851 rev/d
Perigee alt
35,774.0 km
Apogee alt
35,799.1 km
Semi-major
42,164.7 km
B*
0.0000e+0
RAAN
78.3247°
Arg perigee
82.7493°
Mean anomaly
47.7366°
Rev number
4,210

§ Raw data

ANIK F21 28378U 04027A   26251.92204406 -.00000070  00000+0  00000+0 0  99902 28378   3.4983  78.3247 0002972  82.7493  47.7366  1.00271851 42106

JSON: /api/v1/satellites/28378 · /tle

For live sub-satellite position, see the globe view (requires WebGL).

§ Visibility from observer

Set your observer location to see the next 7 days of passes ≥ 10°. The values pass through the URL so the page stays shareable.

No JS? Fill the form by hand. The geolocation button needs JavaScript.